Le nostre stazioni meteo in Italia

Pubblicità
Il mio iltempo24.it
Bari Palese, Italia (16270): Temperatura & dewpoint: 05.12.2018 02:00:00 - 11.12.2018 02:00:00 (CET)Bari Palese, Italia (16270): velocità del vento: 05.12.2018 02:00:00 - 11.12.2018 02:00:00 (CET)Bari Palese, Italia (16270): direzione del vento: 05.12.2018 02:00:00 - 11.12.2018 02:00:00 (CET)Bari Palese, Italia (16270): reduced air pressure: 05.12.2018 02:00:00 - 11.12.2018 02:00:00 (CET)Bari Palese, Italia (16270): visibility: 05.12.2018 02:00:00 - 11.12.2018 02:00:00 (CET)Bari Palese, Italia (16270): precipitazioni: 05.12.2018 02:00:00 - 11.12.2018 02:00:00 (CET)
Data & Tempo tt [°C] td [°C] ff [km/h] ff [kn] dd ppp [hPa] vv [km] rr [mm]
11.12.2018 02:00:00 - - - - - - - -
11.12.2018 01:00:00 6,8 4,1 21 11 ONO 1014,8 14 -
11.12.2018 00:00:00 - - - - - - - -
10.12.2018 23:00:00 - - - - - - - -
10.12.2018 22:00:00 7,6 3,9 24 13 NO 1014,7 14 -
10.12.2018 21:00:00 - - - - - - - -
10.12.2018 20:00:00 - - - - - - - -
10.12.2018 19:00:00 8,8 4,9 15 8 O 1012,4 10 -
10.12.2018 18:00:00 - - - - - - - -
10.12.2018 17:00:00 - - - - - - - -
10.12.2018 16:00:00 9,8 4,8 15 8 NNE - 5 -
10.12.2018 15:00:00 - - - - - - - -
10.12.2018 14:00:00 - - - - - - - -
10.12.2018 13:00:00 15,0 6,4 22 12 NNO 1010,8 15 0,0
10.12.2018 12:00:00 - - - - - - - -
10.12.2018 11:00:00 - - - - - - - -
10.12.2018 10:00:00 14,4 4,7 18 10 NO 1011,2 15 -
10.12.2018 09:00:00 - - - - - - - -
10.12.2018 08:00:00 - - - - - - - -
10.12.2018 07:00:00 10,8 6,8 18 10 ONO 1009,8 15 0,0
10.12.2018 06:00:00 - - - - - - - -
10.12.2018 05:00:00 - - - - - - - -
10.12.2018 04:00:00 11,5 6,4 21 11 NO 1008,8 15 -
10.12.2018 03:00:00 - - - - - - - -
10.12.2018 02:00:00 - - - - - - - -
10.12.2018 01:00:00 13,0 5,6 18 10 NO 1008,0 15 0,0
10.12.2018 00:00:00 - - - - - - - -
09.12.2018 23:00:00 - - - - - - - -
09.12.2018 22:00:00 13,8 5,9 22 12 ONO 1006,9 15 -
09.12.2018 21:00:00 - - - - - - - -
09.12.2018 20:00:00 - - - - - - - -
09.12.2018 19:00:00 13,8 7,8 21 11 O 1007,2 15 0,0
09.12.2018 18:00:00 - - - - - - - -
09.12.2018 17:00:00 - - - - - - - -
09.12.2018 16:00:00 16,4 7,9 5 3 O 1008,2 15 -
09.12.2018 15:00:00 - - - - - - - -
09.12.2018 14:00:00 - - - - - - - -
09.12.2018 13:00:00 17,8 6,0 11 6 O 1008,7 15 0,0
09.12.2018 12:00:00 - - - - - - - -
09.12.2018 11:00:00 - - - - - - - -
09.12.2018 10:00:00 14,2 -1,1 8 4 SO 1013,1 15 -
09.12.2018 09:00:00 - - - - - - - -
09.12.2018 08:00:00 - - - - - - - -
09.12.2018 07:00:00 8,1 3,4 15 8 O 1014,7 15 0,0
09.12.2018 06:00:00 - - - - - - - -
09.12.2018 05:00:00 - - - - - - - -
09.12.2018 04:00:00 9,0 4,6 24 13 ONO 1014,4 15 -
09.12.2018 03:00:00 - - - - - - - -
09.12.2018 02:00:00 - - - - - - - -
09.12.2018 01:00:00 9,6 5,2 24 13 ONO 1014,0 15 0,0
09.12.2018 00:00:00 - - - - - - - -
08.12.2018 23:00:00 - - - - - - - -
08.12.2018 22:00:00 10,2 6,7 29 16 ONO 1013,6 15 -
08.12.2018 21:00:00 - - - - - - - -
08.12.2018 20:00:00 - - - - - - - -
08.12.2018 19:00:00 11,0 8,3 26 14 O 1012,0 15 -
08.12.2018 18:00:00 - - - - - - - -
08.12.2018 17:00:00 - - - - - - - -
08.12.2018 16:00:00 13,1 11,1 26 14 N 1010,4 15 -
08.12.2018 15:00:00 - - - - - - - -
08.12.2018 14:00:00 - - - - - - - -
08.12.2018 13:00:00 16,5 8,7 16 9 OSO 1009,5 15 0,0
08.12.2018 12:00:00 - - - - - - - -
08.12.2018 11:00:00 - - - - - - - -
08.12.2018 10:00:00 14,4 7,7 16 9 SSO 1011,9 15 -
08.12.2018 09:00:00 - - - - - - - -
08.12.2018 08:00:00 - - - - - - - -
08.12.2018 07:00:00 13,6 5,8 15 8 SO 1012,5 15 0,0
08.12.2018 06:00:00 - - - - - - - -
08.12.2018 05:00:00 - - - - - - - -
08.12.2018 04:00:00 9,0 5,8 13 7 SSO 1014,5 15 -
08.12.2018 03:00:00 - - - - - - - -
08.12.2018 02:00:00 - - - - - - - -
08.12.2018 01:00:00 7,9 6,0 9 5 SO 1016,7 15 0,0
08.12.2018 00:00:00 - - - - - - - -
07.12.2018 23:00:00 - - - - - - - -
07.12.2018 22:00:00 7,8 6,3 9 5 SO 1018,6 15 -
07.12.2018 21:00:00 - - - - - - - -
07.12.2018 20:00:00 - - - - - - - -
07.12.2018 19:00:00 10,2 8,3 11 6 SSO 1020,1 15 0,0
07.12.2018 18:00:00 - - - - - - - -
07.12.2018 17:00:00 - - - - - - - -
07.12.2018 16:00:00 13,6 9,8 9 5 N 1020,7 15 -
07.12.2018 15:00:00 - - - - - - - -
07.12.2018 14:00:00 - - - - - - - -
07.12.2018 13:00:00 15,8 8,7 8 4 ONO 1021,1 15 0,0
07.12.2018 12:00:00 - - - - - - - -
07.12.2018 11:00:00 - - - - - - - -
07.12.2018 10:00:00 13,9 7,7 11 6 NO 1022,9 15 -
07.12.2018 09:00:00 - - - - - - - -
07.12.2018 08:00:00 - - - - - - - -
07.12.2018 07:00:00 8,1 5,6 13 7 O 1022,9 12 0,0
07.12.2018 06:00:00 - - - - - - - -
07.12.2018 05:00:00 - - - - - - - -
07.12.2018 04:00:00 9,4 6,9 13 7 O 1022,3 12 -
07.12.2018 03:00:00 - - - - - - - -
07.12.2018 02:00:00 - - - - - - - -
07.12.2018 01:00:00 7,0 5,8 9 5 SO 1022,0 12 0,0
07.12.2018 00:00:00 - - - - - - - -
06.12.2018 23:00:00 - - - - - - - -
06.12.2018 22:00:00 7,1 6,1 8 4 O 1022,4 13 -
06.12.2018 21:00:00 - - - - - - - -
06.12.2018 20:00:00 - - - - - - - -
06.12.2018 19:00:00 7,4 6,1 8 4 O 1021,7 13 0,0
06.12.2018 18:00:00 - - - - - - - -
06.12.2018 17:00:00 - - - - - - - -
06.12.2018 16:00:00 11,9 7,2 8 4 E 1020,6 13 -
06.12.2018 15:00:00 - - - - - - - -
06.12.2018 14:00:00 - - - - - - - -
06.12.2018 13:00:00 14,0 7,8 11 6 E 1021,0 13 0,0
06.12.2018 12:00:00 - - - - - - - -
06.12.2018 11:00:00 - - - - - - - -
06.12.2018 10:00:00 13,1 7,4 2 1 ONO 1022,3 11 -
06.12.2018 09:00:00 - - - - - - - -
06.12.2018 08:00:00 - - - - - - - -
06.12.2018 07:00:00 7,4 4,4 5 3 SSO 1022,6 20 0,0
06.12.2018 06:00:00 - - - - - - - -
06.12.2018 05:00:00 - - - - - - - -
06.12.2018 04:00:00 6,8 3,6 13 7 ONO 1023,1 20 -
06.12.2018 03:00:00 - - - - - - - -
06.12.2018 02:00:00 - - - - - - - -
06.12.2018 01:00:00 8,2 3,5 13 7 O 1024,1 20 0,0
06.12.2018 00:00:00 - - - - - - - -
05.12.2018 23:00:00 - - - - - - - -
05.12.2018 22:00:00 9,2 5,3 11 6 OSO 1018,5 20 -
05.12.2018 21:00:00 - - - - - - - -
05.12.2018 20:00:00 - - - - - - - -
05.12.2018 19:00:00 13,2 4,9 18 10 NNO 1023,7 20 0,0
05.12.2018 18:00:00 - - - - - - - -
05.12.2018 17:00:00 - - - - - - - -
05.12.2018 16:00:00 13,7 5,7 18 10 N 1023,7 20 -
05.12.2018 15:00:00 - - - - - - - -
05.12.2018 14:00:00 - - - - - - - -
05.12.2018 13:00:00 14,9 3,8 15 8 NNE 1023,6 10 0,0
05.12.2018 12:00:00 - - - - - - - -
05.12.2018 11:00:00 - - - - - - - -
05.12.2018 10:00:00 15,2 4,2 22 12 NE 1023,5 10 -
05.12.2018 09:00:00 - - - - - - - -
05.12.2018 08:00:00 - - - - - - - -
05.12.2018 07:00:00 10,5 8,0 15 8 ONO 1021,8 10 -
05.12.2018 06:00:00 - - - - - - - -
05.12.2018 05:00:00 - - - - - - - -
05.12.2018 04:00:00 11,3 9,2 16 9 ONO 1019,8 10 -
05.12.2018 03:00:00 - - - - - - - -
05.12.2018 02:00:00 - - - - - - - -

tt = Temperatura
td = dewpoint
ff = velocità del vento
dd = direzione del vento
ppp = reduced air pressure
vv = visibility
rr = precipitazioni

Stazioni seguenti

WeatherPro
AMSI
MeteoEarth